Wind_Speed
43 43 42 40 39 39 38 37 36 35 34 33 32 31 31 30 29 28 28 27 27 26 26 26 26 26 27 27 27 27 27 27 28 29 30 30 30 31 31 32 32 33 33 34
44 43 41 41 41 40 39 38 37 37 36 35 34 33 32 31 30 29 29 28 27 27 27 27 27 27 28 28 28 28 28 29 29 30 30 30 31 31 32 32 32 33 34 34
44 42 41 42 42 41 39 38 37 38 37 37 36 34 33 31 30 29 29 29 29 28 28 28 28 29 29 28 29 29 29 30 30 30 31 31 32 32 33 33 33 34 35 35
45 43 42 43 42 41 40 38 38 38 38 37 37 36 33 32 31 30 29 29 28 28 29 29 29 30 30 29 30 30 30 30 30 31 31 32 32 32 33 34 34 35 35 35
44 43 42 43 41 41 40 39 39 39 39 38 37 38 33 33 32 31 30 29 29 29 30 30 30 30 30 30 30 30 30 31 31 31 31 32 32 33 34 34 35 36 36 37
44 44 43 42 41 41 41 40 39 39 39 39 36 38 35 33 32 31 30 30 30 30 30 30 30 30 30 30 30 30 30 31 31 31 32 32 33 34 35 36 36 37 37 38
45 44 43 42 42 42 41 40 40 40 40 40 36 38 36 32 31 31 30 30 30 30 30 30 29 29 29 29 30 30 31 31 32 32 33 33 34 35 36 37 37 37 38 39
45 45 43 42 42 42 41 41 41 41 40 39 38 38 34 31 30 30 30 30 30 30 30 29 29 30 30 30 30 31 32 32 33 33 33 34 35 36 36 37 38 38 39 40
45 44 43 43 41 42 42 42 41 42 42 41 39 36 32 30 30 30 30 30 31 31 30 30 30 31 31 31 31 31 32 32 33 33 34 35 36 36 37 37 38 38 39 40
44 44 43 42 42 42 42 42 41 42 42 42 40 36 31 29 30 31 31 31 31 31 30 30 30 30 31 31 31 32 32 33 33 34 35 35 36 36 37 38 38 39 40 41
45 45 44 44 43 43 43 42 42 42 43 42 40 35 30 30 30 30 31 31 31 31 30 30 30 31 31 31 32 32 33 33 34 35 35 36 36 37 38 38 39 40 41 41
45 45 44 44 43 43 44 43 43 43 43 41 40 35 31 31 31 31 31 30 30 30 30 30 31 31 31 31 32 33 34 34 35 35 36 36 37 38 38 39 40 41 41 42
44 47 46 45 45 45 45 44 43 43 43 42 40 35 31 32 33 33 32 31 30 30 30 30 31 31 31 32 33 33 34 34 35 35 36 37 38 38 39 40 40 41 42 43
44 46 46 45 44 44 44 43 43 43 43 42 38 34 32 32 34 35 34 33 32 31 31 31 31 31 32 33 33 34 34 34 35 35 36 37 38 38 39 40 41 42 42 43
44 45 45 44 44 44 44 44 44 44 42 42 37 35 32 33 35 36 35 34 33 32 32 32 32 33 33 33 33 34 34 34 35 36 37 38 38 39 39 40 41 42 43 43
45 45 45 44 44 46 46 44 44 43 43 42 40 37 32 34 36 37 36 35 34 33 33 33 33 33 33 33 34 34 35 36 36 37 38 39 39 40 40 41 42 42 43 43
45 43 44 44 45 47 47 43 43 43 42 42 41 36 35 36 37 38 37 37 35 34 34 34 35 35 34 34 34 35 36 37 38 38 39 40 40 40 41 41 42 43 43 44
44 43 44 44 46 49 44 43 42 41 40 40 40 37 37 38 38 39 38 37 36 35 35 35 35 36 35 35 35 36 37 38 39 39 40 40 40 41 42 42 43 44 44 45
45 44 45 44 46 47 44 42 41 41 39 37 39 38 38 38 39 38 38 38 36 36 35 36 36 36 36 36 37 38 38 39 39 40 40 41 41 42 43 43 44 45 46 47
46 46 46 45 45 45 40 40 40 41 39 35 38 38 38 39 39 36 37 37 37 37 36 36 36 36 36 37 37 38 39 39 40 40 41 42 42 43 44 45 45 46 47 48
46 46 46 44 43 42 38 38 39 40 35 34 35 37 38 38 37 36 37 37 37 37 37 37 37 36 36 37 38 39 39 40 40 41 42 42 43 45 45 46 47 47 48 49
47 46 45 45 44 39 36 38 38 36 36 36 35 36 37 37 37 37 37 37 37 37 37 37 37 37 37 38 38 39 40 41 41 42 43 44 45 46 46 47 48 49 49 50
47 47 46 47 44 39 38 38 36 36 37 37 35 36 37 37 37 37 37 37 37 37 37 37 37 38 38 38 39 40 41 41 42 43 44 45 46 47 47 48 49 49 50 51
47 46 47 47 45 43 40 39 38 38 38 38 37 36 37 37 37 37 37 38 38 38 38 38 38 38 38 39 40 41 42 43 44 44 45 46 47 47 48 49 50 50 51 52
47 47 47 47 43 43 41 40 38 38 38 38 38 38 37 37 37 37 38 38 38 38 39 39 39 39 39 40 41 42 43 44 44 45 46 47 48 48 49 50 51 52 53 54
44 45 46 45 42 43 42 41 41 40 39 38 39 39 38 37 37 38 39 39 39 39 39 39 40 40 40 41 42 43 44 45 45 46 47 48 48 49 50 51 52 53 54 55
Wind_Direction
239 240 240 243 245 246 247 248 249 250 252 253 255 256 259 262 263 265 267 270 272 274 276 277 279 280 281 283 284 285 286 287 288 290 291 292 292 292 292 292 293 294 295 295
238 240 241 242 243 244 245 247 248 250 251 253 254 256 258 261 263 264 266 269 271 273 275 277 278 280 281 282 284 285 285 287 289 290 291 291 291 292 292 293 293 294 294 294
239 240 240 240 242 243 245 247 248 249 251 254 255 255 257 259 261 263 265 267 270 273 275 277 278 280 281 281 282 284 285 287 288 290 291 291 291 292 292 292 293 293 294 294
236 236 238 239 241 243 244 246 247 249 251 253 255 255 254 258 260 262 264 267 270 272 274 277 278 280 280 281 282 283 285 286 288 289 291 291 291 291 292 292 293 294 294 295
235 236 237 239 241 243 244 245 247 248 251 253 254 257 253 256 259 261 264 267 269 272 275 277 278 279 279 280 282 283 284 286 288 289 290 291 291 291 292 293 294 294 294 294
235 235 236 237 238 240 242 243 246 249 252 253 253 258 256 255 258 261 264 267 269 271 274 276 277 278 279 280 281 282 284 285 287 289 290 291 291 292 292 293 293 294 295 295
233 235 236 237 238 239 241 242 246 249 251 253 252 255 257 256 258 260 263 266 268 270 273 275 275 277 278 279 281 282 284 286 288 289 290 291 292 293 293 293 294 294 295 295
235 236 237 238 239 240 241 242 245 249 251 253 252 254 256 258 258 259 262 265 267 270 271 272 274 276 278 279 281 283 285 286 288 289 290 291 292 293 294 294 295 295 295 295
236 237 237 238 238 238 239 241 244 248 251 253 253 254 254 257 259 260 262 264 266 269 270 271 273 276 277 279 281 283 285 287 288 289 290 291 293 294 294 295 295 295 295 295
235 237 236 237 236 236 239 240 242 245 249 252 254 254 254 255 259 261 262 264 266 268 269 271 274 276 277 279 281 283 285 287 288 289 290 292 293 294 294 295 295 295 295 295
234 236 236 235 235 236 238 239 241 245 248 252 255 254 255 257 259 262 263 264 265 266 268 270 273 275 278 280 282 283 285 286 288 289 290 291 292 293 294 295 295 295 295 295
234 236 237 236 236 237 238 240 241 244 247 251 255 254 255 258 259 261 263 264 265 266 267 269 272 275 278 281 282 283 285 286 287 288 290 291 292 293 294 295 295 295 295 295
234 236 237 236 237 236 238 239 240 243 247 251 254 256 256 258 260 261 262 264 265 266 267 269 272 275 278 280 282 283 285 286 287 288 290 291 292 293 294 295 296 295 295 295
233 235 236 238 240 239 238 239 242 245 247 250 253 255 253 257 259 260 262 264 265 266 268 270 272 275 277 280 282 283 285 286 287 289 290 292 293 294 295 295 295 296 296 296
234 236 236 237 240 240 239 240 242 246 249 251 253 254 253 256 258 260 263 264 265 267 269 271 272 273 276 279 281 283 285 286 288 289 291 293 293 294 295 296 297 297 297 296
235 237 237 239 240 241 240 240 243 246 249 251 252 252 252 253 257 259 261 263 265 267 268 269 270 272 275 278 280 283 285 287 288 290 292 293 293 294 296 297 298 298 298 298
236 238 239 240 241 241 241 241 245 248 250 251 252 251 251 254 256 259 261 263 265 265 266 267 270 272 274 277 280 283 285 287 289 290 292 293 293 294 296 297 298 299 299 299
237 238 241 242 241 242 242 242 244 247 249 250 252 252 253 255 256 257 260 262 264 264 265 266 268 271 274 277 280 282 285 287 289 290 292 293 294 295 296 297 298 299 299 299
237 239 240 242 243 243 241 242 244 247 248 250 252 252 253 255 256 257 260 261 263 263 264 266 268 270 274 277 280 282 285 287 288 290 291 293 294 295 296 297 298 299 299 300
237 238 239 241 243 243 241 243 244 247 248 249 252 252 253 255 257 258 259 261 262 262 263 265 268 271 274 277 280 282 284 286 288 290 292 293 294 295 296 297 298 299 300 300
236 238 239 241 243 242 241 245 246 248 249 250 253 253 254 257 259 259 259 260 261 262 263 265 268 271 275 277 279 282 284 287 289 290 292 293 294 296 297 298 298 299 300 301
236 237 239 239 241 242 242 244 247 250 250 252 254 255 256 258 259 259 260 261 262 263 265 267 270 272 275 277 280 282 285 287 289 291 292 293 295 296 297 298 299 300 301 301
237 238 240 242 242 241 243 245 248 250 250 252 255 256 256 257 258 260 260 261 263 264 266 268 271 273 276 278 281 283 286 288 289 291 293 294 295 297 298 299 300 300 301 302
239 240 241 241 240 240 242 245 247 249 250 251 253 255 256 258 259 259 260 261 263 265 266 269 272 274 277 279 282 284 286 288 290 291 293 295 296 297 298 299 300 301 301 302
240 240 241 242 241 240 242 245 247 249 250 252 253 254 256 259 259 259 260 263 265 266 269 271 274 276 278 280 282 284 286 288 290 291 293 295 296 297 298 299 301 301 302 303
241 242 242 242 242 244 244 246 247 248 250 252 254 255 257 259 260 259 261 264 266 268 270 272 274 276 278 281 283 285 287 288 290 291 293 295 296 297 298 300 301 301 302 303
Height
5767 5772 5777 5783 5785 5789 5791 5794 5796 5799 5801 5802 5804 5805 5807 5808 5810 5811 5811 5812 5813 5813 5813 5812 5812 5811 5810 5809 5808 5807 5806 5804 5803 5801 5799 5797 5795 5793 5790 5788 5786 5783 5781 5779
5759 5764 5771 5774 5776 5779 5783 5786 5789 5792 5793 5795 5797 5798 5800 5801 5803 5804 5805 5806 5806 5807 5807 5806 5806 5805 5804 5803 5802 5801 5800 5798 5797 5795 5793 5791 5789 5786 5784 5782 5779 5777 5774 5772
5750 5759 5762 5764 5768 5771 5775 5779 5782 5784 5785 5787 5789 5792 5793 5795 5796 5797 5798 5799 5800 5800 5801 5800 5799 5799 5798 5797 5796 5795 5793 5792 5790 5788 5786 5784 5782 5780 5778 5775 5772 5770 5767 5765
5741 5748 5752 5755 5760 5764 5768 5772 5774 5775 5777 5779 5781 5783 5788 5788 5789 5791 5792 5793 5793 5793 5793 5793 5793 5792 5791 5790 5789 5788 5787 5785 5783 5782 5780 5778 5776 5773 5771 5768 5765 5763 5760 5757
5734 5741 5744 5748 5754 5757 5760 5763 5765 5767 5768 5771 5773 5774 5781 5781 5782 5784 5785 5786 5786 5786 5786 5786 5786 5785 5784 5783 5782 5781 5780 5778 5777 5775 5773 5771 5769 5767 5764 5761 5758 5755 5753 5750
5726 5731 5735 5740 5745 5748 5751 5754 5757 5758 5760 5763 5767 5767 5771 5775 5776 5778 5779 5779 5779 5779 5779 5779 5779 5778 5778 5777 5776 5774 5773 5771 5770 5768 5766 5764 5762 5759 5756 5753 5751 5748 5745 5742
5717 5722 5727 5732 5736 5739 5743 5747 5749 5750 5751 5755 5759 5758 5763 5768 5770 5771 5772 5772 5772 5772 5772 5772 5772 5771 5770 5770 5769 5767 5766 5764 5762 5761 5759 5756 5754 5751 5749 5746 5743 5740 5737 5734
5709 5714 5720 5724 5728 5732 5735 5739 5741 5743 5744 5748 5750 5751 5758 5761 5762 5763 5764 5765 5765 5765 5765 5765 5764 5764 5763 5762 5761 5760 5758 5757 5755 5753 5751 5749 5746 5744 5741 5738 5735 5732 5729 5725
5701 5707 5712 5715 5720 5723 5726 5729 5733 5735 5736 5738 5741 5745 5751 5753 5754 5755 5756 5757 5757 5758 5758 5757 5757 5756 5755 5755 5754 5752 5751 5749 5747 5745 5743 5741 5738 5735 5733 5729 5726 5723 5720 5716
5693 5697 5702 5706 5709 5713 5717 5721 5724 5725 5727 5729 5733 5738 5744 5746 5746 5748 5749 5749 5750 5750 5750 5749 5749 5748 5748 5747 5746 5744 5743 5741 5739 5737 5735 5733 5730 5727 5724 5721 5718 5714 5711 5707
5683 5688 5692 5696 5700 5705 5709 5712 5715 5717 5719 5722 5725 5733 5737 5738 5739 5740 5741 5741 5742 5742 5742 5742 5741 5740 5740 5739 5738 5736 5735 5733 5731 5729 5727 5724 5721 5718 5715 5712 5709 5705 5702 5698
5674 5678 5682 5687 5693 5696 5699 5703 5707 5710 5712 5714 5717 5726 5729 5730 5730 5731 5732 5733 5733 5734 5734 5734 5733 5733 5732 5731 5730 5728 5727 5725 5723 5721 5718 5716 5713 5710 5707 5703 5700 5696 5692 5689
5665 5668 5672 5676 5682 5686 5689 5693 5697 5700 5703 5705 5708 5719 5721 5722 5722 5723 5724 5725 5725 5725 5726 5726 5725 5724 5723 5722 5721 5720 5718 5716 5714 5712 5709 5707 5704 5701 5698 5694 5690 5687 5683 5679
5654 5658 5664 5669 5673 5677 5681 5685 5689 5691 5693 5697 5702 5709 5713 5713 5713 5714 5715 5715 5716 5717 5717 5717 5716 5716 5715 5714 5712 5711 5709 5707 5705 5703 5700 5698 5695 5691 5688 5684 5681 5677 5673 5669
5644 5649 5654 5659 5663 5667 5671 5675 5679 5681 5686 5689 5695 5699 5704 5704 5704 5704 5705 5706 5707 5708 5708 5708 5708 5707 5706 5705 5703 5702 5700 5698 5696 5694 5691 5688 5685 5682 5678 5675 5671 5667 5663 5659
5635 5640 5645 5649 5653 5656 5660 5665 5669 5673 5677 5680 5684 5689 5694 5694 5693 5694 5696 5697 5698 5699 5699 5699 5698 5698 5697 5696 5694 5693 5691 5689 5687 5684 5681 5678 5675 5672 5668 5665 5661 5657 5652 5648
5626 5631 5635 5639 5642 5644 5649 5659 5661 5665 5669 5672 5674 5682 5683 5684 5684 5685 5686 5688 5689 5689 5689 5689 5689 5688 5687 5686 5685 5684 5682 5680 5677 5675 5671 5668 5665 5662 5658 5655 5650 5646 5642 5637
5617 5621 5624 5628 5631 5634 5648 5650 5652 5656 5660 5663 5666 5670 5672 5674 5674 5675 5676 5677 5678 5679 5679 5679 5679 5678 5678 5677 5675 5674 5672 5670 5667 5664 5661 5658 5655 5652 5648 5644 5640 5636 5631 5626
5608 5611 5614 5618 5620 5626 5636 5641 5644 5646 5651 5655 5656 5659 5661 5662 5663 5666 5667 5667 5668 5669 5669 5669 5669 5668 5668 5667 5665 5664 5662 5660 5657 5654 5651 5648 5645 5641 5637 5633 5629 5625 5620 5615
5598 5601 5606 5609 5611 5617 5631 5633 5634 5636 5642 5647 5646 5648 5650 5651 5653 5658 5657 5658 5658 5659 5659 5659 5659 5658 5658 5657 5655 5653 5652 5649 5647 5644 5641 5637 5634 5630 5626 5622 5618 5613 5608 5603
5588 5591 5595 5599 5602 5610 5621 5622 5624 5629 5636 5636 5636 5637 5639 5641 5645 5647 5647 5648 5648 5648 5649 5649 5649 5648 5648 5646 5645 5643 5641 5639 5636 5633 5630 5626 5623 5619 5615 5610 5606 5601 5596 5591
5578 5582 5587 5590 5593 5605 5612 5612 5616 5620 5623 5624 5625 5627 5629 5632 5634 5635 5636 5637 5638 5638 5639 5639 5639 5638 5637 5636 5634 5632 5631 5628 5625 5622 5619 5615 5611 5607 5603 5598 5594 5589 5583 5578
5568 5574 5579 5582 5590 5598 5600 5603 5606 5608 5612 5613 5615 5617 5619 5621 5623 5625 5626 5627 5628 5628 5628 5628 5628 5628 5627 5625 5623 5622 5620 5617 5614 5611 5607 5603 5600 5595 5591 5586 5581 5576 5571 5565
5559 5563 5567 5572 5580 5586 5589 5591 5595 5598 5601 5603 5605 5607 5609 5611 5613 5615 5616 5617 5617 5617 5618 5618 5618 5617 5616 5614 5612 5610 5608 5605 5602 5599 5595 5592 5588 5583 5578 5573 5568 5563 5557 5552
5549 5552 5555 5561 5569 5573 5577 5581 5585 5588 5590 5592 5595 5597 5599 5600 5602 5604 5605 5606 5607 5607 5607 5607 5607 5606 5605 5603 5601 5599 5596 5593 5590 5587 5583 5579 5575 5570 5566 5561 5555 5549 5544 5538
5540 5543 5547 5553 5561 5562 5567 5571 5573 5576 5579 5581 5584 5586 5588 5590 5592 5593 5594 5595 5596 5596 5597 5596 5596 5595 5594 5592 5590 5587 5584 5581 5578 5575 5571 5567 5562 5558 5553 5548 5542 5536 5530 5524